GW1885 Weather Reports


time (UTC)temp
C
wind
direction
speed
KPH
gust
KPH
rain 1hr
cm
rain 24hr
cm
rain mn
cm
humidity
%
barometer
mb
20260905223525 12 30 3.2 9.7 0.08 1.04 0.00 94 1011.1
20260905223003 12 27 3.2 9.7 0.08 1.04 0.00 94 1011.0
20260905222503 12 33 3.2 9.7 0.08 1.04 0.00 95 1010.9
20260905222004 12 55 3.2 6.4 0.10 1.07 0.00 95 1010.8
20260905221504 12 29 3.2 9.7 0.10 1.17 0.00 94 1011.0
20260905221005 12 335 3.2 14.5 0.10 1.17 0.00 94 1011.0
20260905220503 12 313 3.2 14.5 0.13 1.17 0.00 94 1011.0
20260905220007 13 352 3.2 12.9 0.13 1.17 0.00 94 1011.0
20260905215503 13 28 4.8 12.9 0.13 1.19 1.17 94 1011.0
20260905215004 13 34 3.2 12.9 0.13 1.24 1.17 94 1011.0
20260905214503 13 36 1.6 4.8 0.05 1.19 1.12 94 1011.0
20260905214003 12 347 3.2 9.7 0.05 1.19 1.12 93 1010.6
20260905213503 13 318 3.2 14.5 0.05 1.22 1.12 93 1010.7
20260905213024 13 353 3.2 14.5 0.05 1.22 1.12 94 1010.7
20260905212504 13 11 1.6 4.8 0.05 1.22 1.09 94 1010.8
20260905212004 13 350 1.6 6.4 0.05 1.22 1.09 94 1010.6
20260905211504 13 2 1.6 6.4 0.05 1.22 1.09 93 1010.6
20260905211004 13 318 1.6 9.7 0.05 1.22 1.09 93 1010.6
20260905210503 13 32 3.2 9.7 0.03 1.19 1.07 92 1010.7
20260905210004 13 330 3.2 20.9 0.03 1.19 1.04 91 1010.8
20260905205503 13 314 4.8 20.9 0.03 1.19 1.04 90 1010.7
20260905205004 13 322 3.2 20.9 0.03 1.19 1.04 91 1010.6
20260905204503 13 332 3.2 11.3 0.03 1.19 1.04 91 1010.5
20260905204003 13 354 3.2 9.7 0.03 1.19 1.04 92 1010.7
20260905203524 13 3 1.6 9.7 0.03 1.19 1.04 92 1010.6
20260905203003 13 17 1.6 9.7 0.03 1.19 1.04 92 1010.6
20260905202503 13 37 3.2 9.7 0.03 1.19 1.04 91 1010.6
20260905202025 13 51 1.6 6.4 0.00 1.17 1.04 91 1010.7
20260905201504 13 43 3.2 6.4 0.00 1.17 1.04 91 1010.7
20260905201004 13 36 3.2 6.4 0.00 1.17 1.04 91 1010.7
20260905200524 13 61 3.2 4.8 0.00 1.17 1.04 91 1010.8
20260905200003 13 57 3.2 9.7 0.00 1.17 1.04 90 1010.6
20260905195524 13 25 3.2 9.7 0.00 1.17 1.04 91 1010.7
20260905195004 14 41 3.2 9.7 0.00 1.17 1.04 90 1010.5
20260905194504 13 53 3.2 9.7 0.00 1.17 1.04 90 1010.6
20260905194004 13 51 3.2 12.9 0.00 1.17 1.04 90 1010.7
20260905193503 13 51 3.2 12.9 0.00 1.17 1.04 90 1010.6
20260905193003 13 31 3.2 11.3 0.00 1.17 1.04 90 1010.6
20260905192503 13 10 3.2 11.3 0.00 1.19 1.04 90 1010.6
20260905192003 13 42 3.2 16.1 0.00 1.19 1.04 90 1010.6
20260905191524 13 42 3.2 16.1 0.00 1.22 1.04 91 1010.7
20260905191003 13 27 3.2 9.7 0.00 1.22 1.04 91 1010.6
20260905190503 13 36 3.2 9.7 0.00 1.22 1.04 91 1010.5
20260905190003 13 33 3.2 6.4 0.00 1.22 1.04 91 1010.6
20260905185503 13 356 3.2 9.7 0.00 1.22 1.04 91 1010.5
20260905185003 13 326 3.2 14.5 0.00 1.22 1.04 91 1010.6
20260905184504 13 343 3.2 14.5 0.00 1.22 1.04 91 1010.5
20260905184024 13 7 3.2 11.3 0.00 1.22 1.04 91 1010.5
20260905183525 13 6 3.2 6.4 0.00 1.22 1.04 91 1010.5
20260905183004 13 21 3.2 11.3 0.00 1.22 1.04 91 1010.4
20260905182503 13 54 3.2 11.3 0.00 1.24 1.04 91 1010.2
20260905182025 13 87 3.2 14.5 0.00 1.32 1.04 91 1010.4
20260905181524 13 215 3.2 14.5 0.00 1.40 1.04 91 1010.3
20260905181003 13 38 3.2 11.3 0.00 1.42 1.04 91 1010.1
20260905180504 13 37 3.2 11.3 0.00 1.45 1.04 91 1010.1
20260905180004 13 14 3.2 14.5 0.00 1.45 1.04 91 1010.1
20260905175503 13 356 3.2 20.9 0.00 1.45 1.04 90 1009.9
20260905175004 13 26 3.2 20.9 0.00 1.45 1.04 91 1010.0
20260905174503 13 65 3.2 11.3 0.00 1.45 1.04 91 1009.8
20260905174003 13 88 3.2 11.3 0.00 1.45 1.04 91 1009.8
20260905173503 13 48 3.2 9.7 0.00 1.45 1.04 90 1009.6
20260905173003 13 51 3.2 9.7 0.00 1.45 1.04 91 1009.8
20260905172504 13 83 3.2 12.9 0.00 1.47 1.04 92 1009.9
20260905172004 13 109 1.6 12.9 0.00 1.47 1.04 93 1009.9
20260905171503 13 118 1.6 6.4 0.00 1.47 1.04 94 1009.9
20260905171004 13 106 1.6 6.4 0.00 1.47 1.04 94 1009.8
20260905170504 13 98 1.6 4.8 0.00 1.47 1.04 94 1009.8
20260905170003 13 95 1.6 4.8 0.00 1.47 1.04 94 1009.6
20260905165504 13 94 1.6 6.4 0.00 1.47 1.04 93 1009.8
20260905165003 13 100 3.2 9.7 0.00 1.47 1.04 92 1009.9
20260905164524 13 93 3.2 9.7 0.00 1.47 1.04 91 1009.6
20260905164004 13 80 3.2 6.4 0.00 1.47 1.04 91 1009.5
20260905163503 13 78 3.2 9.7 0.00 1.47 1.04 89 1009.4
20260905163003 13 63 3.2 9.7 0.00 1.47 1.04 89 1009.4
20260905162504 13 46 3.2 9.7 0.00 1.47 1.04 89 1009.3
20260905162003 13 65 3.2 11.3 0.00 1.47 1.04 88 1009.4
20260905161524 13 84 3.2 11.3 0.00 1.47 1.04 87 1009.3
20260905161003 14 70 3.2 11.3 0.00 1.47 1.04 86 1009.2
20260905160525 14 65 3.2 9.7 0.00 1.47 1.04 87 1009.2
20260905160004 14 70 3.2 9.7 0.00 1.47 1.04 86 1009.2
20260905155504 14 59 3.2 9.7 0.00 1.47 1.04 87 1009.1
20260905155003 14 51 4.8 14.5 0.00 1.47 1.04 86 1009.2
20260905154502 14 47 3.2 14.5 0.00 1.47 1.04 87 1009.1
20260905154003 14 48 3.2 12.9 0.00 1.50 1.04 88 1009.0
20260905153503 14 64 4.8 12.9 0.00 1.50 1.04 88 1009.1
20260905153003 15 82 3.2 11.3 0.00 1.50 1.04 89 1009.0
20260905152503 14 59 3.2 9.7 0.00 1.50 1.04 89 1008.9
20260905152003 14 56 3.2 9.7 0.00 1.52 1.04 90 1008.9
20260905151504 14 69 3.2 14.5 0.00 1.55 1.04 91 1009.1
20260905151024 14 65 4.8 14.5 0.00 1.57 1.04 90 1009.2
20260905150503 14 64 4.8 14.5 0.00 1.60 1.04 90 1009.1
20260905150024 14 65 4.8 14.5 0.00 1.60 1.04 90 1008.9
20260905145524 14 68 4.8 14.5 0.00 1.60 1.04 91 1009.1
20260905145003 15 40 4.8 14.5 0.00 1.63 1.04 89 1009.3
20260905144504 15 28 4.8 16.1 0.00 1.65 1.04 88 1009.1
20260905144025 15 56 4.8 16.1 0.00 1.70 1.04 88 1009.0
20260905143503 15 59 3.2 11.3 0.00 1.75 1.04 90 1008.9
20260905143004 15 54 3.2 12.9 0.00 1.78 1.04 90 1009.1
20260905142503 14 58 3.2 14.5 0.00 1.83 1.04 91 1009.1
20260905142024 14 80 3.2 14.5 0.00 1.83 1.04 91 1009.2
20260905141503 14 95 3.2 12.9 0.00 1.88 1.04 90 1009.0
20260905141003 15 95 3.2 11.3 0.00 1.88 1.04 90 1009.1
20260905140502 14 72 3.2 9.7 0.00 1.93 1.04 93 1009.2
20260905140005 14 67 3.2 6.4 0.00 1.93 1.04 95 1008.9
20260905135503 13 67 3.2 6.4 0.00 1.96 1.04 95 1009.2
20260905135003 13 59 3.2 12.9 0.00 1.98 1.04 94 1009.4
20260905134503 13 73 3.2 12.9 0.03 2.03 1.04 93 1009.2
20260905134024 13 53 3.2 9.7 0.05 2.06 1.04 94 1009.4
20260905133503 12 19 3.2 9.7 0.08 2.08 1.04 94 1009.2
20260905133003 12 33 3.2 9.7 0.10 2.08 1.04 94 1009.3
20260905132503 12 89 1.6 9.7 0.15 2.08 1.04 94 1009.2
20260905131503 12 39 3.2 12.9 0.20 2.08 1.04 94 1009.1
20260905131004 12 36 3.2 12.9 0.20 2.08 1.04 94 1009.3
20260905130503 12 68 3.2 12.9 0.20 2.08 1.04 93 1009.0
20260905130004 12 195 4.8 12.9 0.20 2.08 1.04 94 1009.2
20260905125503 12 259 3.2 12.9 0.20 2.08 1.04 94 1009.3
20260905125004 12 307 3.2 11.3 0.20 2.08 1.02 94 1009.3
20260905124503 12 325 4.8 12.9 0.18 2.08 1.02 93 1009.3
20260905124003 12 335 4.8 12.9 0.18 2.06 0.99 93 1009.3
20260905123504 13 347 4.8 12.9 0.13 2.03 0.94 92 1009.5
20260905123004 13 355 4.8 12.9 0.10 2.03 0.94 91 1009.4
20260905122503 13 327 4.8 14.5 0.08 1.98 0.89 90 1009.3
20260905122004 14 4 4.8 14.5 0.05 1.98 0.86 90 1009.2
20260905121503 14 359 4.8 16.1 0.00 1.93 0.84 88 1009.2
20260905121005 15 346 4.8 16.1 0.00 1.93 0.84 86 1008.9
20260905120504 15 335 4.8 12.9 0.00 1.93 0.84 87 1009.0
20260905120004 15 355 6.4 17.7 0.00 1.93 0.84 87 1008.9
20260905115503 15 30 6.4 20.9 0.03 1.93 0.84 87 1008.9
20260905115004 15 336 6.4 20.9 0.03 1.93 0.81 86 1008.8
20260905114504 16 349 4.8 16.1 0.03 1.93 0.81 86 1008.8
20260905114004 16 52 4.8 11.3 0.03 1.93 0.81 89 1008.7
20260905113504 16 82 3.2 16.1 0.03 1.93 0.81 90 1008.6
20260905094504 15 325 6.4 25.7 0.15 1.83 0.71 91 1007.8
20260905094003 15 349 4.8 14.5 0.10 1.78 0.66 91 1007.3
20260905093503 15 333 4.8 14.5 0.10 1.78 0.66 92 1007.1
20260905093026 15 354 6.4 22.5 0.10 1.78 0.66 93 1007.4
20260905092504 15 19 6.4 22.5 0.10 1.78 0.66 93 1007.3
20260905092004 14 37 4.8 17.7 0.10 1.78 0.66 94 1007.1
20260905091505 14 10 4.8 16.1 0.10 1.78 0.64 94 1007.2
20260905091003 14 336 6.4 14.5 0.08 1.75 0.64 93 1007.0
20260905090504 15 310 6.4 16.1 0.05 1.75 0.61 94 1007.0
20260905090004 14 4 6.4 16.1 0.05 1.73 0.58 93 1007.2
20260905085504 15 46 4.8 14.5 0.03 1.70 0.56 93 1007.0
20260905085004 15 69 6.4 17.7 0.03 1.70 0.56 92 1006.7
20260905084503 15 78 6.4 17.7 0.00 1.70 0.56 88 1006.9
20260905084003 16 68 4.8 16.1 0.00 1.68 0.56 86 1007.0
20260905083525 16 349 4.8 24.1 0.00 1.68 0.56 87 1006.7
20260905083005 15 8 4.8 24.1 0.00 1.68 0.56 85 1006.5
20260905082506 15 349 4.8 12.9 0.00 1.68 0.56 87 1006.6
20260905082006 16 303 6.4 20.9 0.00 1.68 0.56 84 1006.5
20260905081525 16 340 6.4 20.9 0.00 1.68 0.56 82 1006.6
20260905081005 16 347 6.4 16.1 0.00 1.68 0.56 85 1006.5
20260905080504 15 327 8.0 22.5 0.00 1.68 0.56 84 1006.7
20260905080005 16 316 8.0 24.1 0.00 1.68 0.56 82 1006.5
20260905075505 16 308 6.4 24.1 0.00 1.68 0.56 81 1006.2
20260905075005 16 322 4.8 29.0 0.00 1.68 0.56 82 1006.2
20260905074525 16 336 6.4 29.0 0.00 1.68 0.56 83 1006.3
20260905074026 16 330 4.8 16.1 0.00 1.68 0.56 83 1006.1
20260905073504 16 299 6.4 17.7 0.00 1.68 0.56 84 1006.0
20260905073027 15 323 6.4 22.5 0.00 1.68 0.56 83 1006.0
20260905072526 15 323 6.4 22.5 0.00 1.68 0.56 84 1006.1
20260905072004 15 334 6.4 22.5 0.05 1.68 0.56 86 1005.9
20260905071505 15 9 6.4 22.5 0.05 1.68 0.56 86 1005.8
20260905071005 15 27 4.8 14.5 0.05 1.68 0.56 89 1005.9
20260905070526 15 295 6.4 33.8 0.05 1.68 0.56 90 1005.7
20260905070006 15 314 6.4 33.8 0.05 1.68 0.56 90 1005.7
20260905065505 14 360 4.8 16.1 0.05 1.68 0.56 91 1005.5
20260905065006 14 115 4.8 16.1 0.05 1.68 0.56 94 1005.5
20260905064504 14 8 4.8 14.5 0.05 1.68 0.56 95 1005.4
20260905064005 13 360 4.8 22.5 0.05 1.68 0.56 96 1005.3
20260905063505 13 2 4.8 22.5 0.05 1.68 0.56 96 1005.3
20260905063006 13 21 3.2 12.9 0.05 1.68 0.56 96 1005.4
20260905062505 14 33 3.2 12.9 0.08 1.68 0.56 96 1005.1
20260905062004 14 54 3.2 12.9 0.03 1.63 0.48 97 1005.0
20260905061504 13 78 3.2 12.9 0.03 1.63 0.48 97 1004.9
20260905061005 13 64 3.2 12.9 0.08 1.63 0.48 97 1005.2
20260905060504 13 57 4.8 11.3 0.08 1.63 0.48 97 1004.9
20260905060005 13 66 3.2 11.3 0.08 1.63 0.48 97 1004.9
20260905055526 13 26 3.2 12.9 0.08 1.63 0.48 97 1004.8
20260905055005 13 27 4.8 12.9 0.08 1.63 0.48 97 1004.6
20260905054505 13 62 4.8 14.5 0.08 1.63 0.48 97 1004.5
20260905054005 13 55 4.8 14.5 0.08 1.63 0.48 97 1004.4
20260905053504 13 5 4.8 20.9 0.10 1.63 0.48 98 1004.7
20260905053026 13 19 4.8 20.9 0.10 1.63 0.48 98 1004.5
20260905052504 13 73 4.8 17.7 0.08 1.63 0.48 98 1004.4
20260905052005 13 87 4.8 12.9 0.08 1.60 0.48 97 1004.3
20260905051525 13 79 3.2 9.7 0.05 1.60 0.46 97 1004.0
20260905051026 13 85 3.2 9.7 0.03 1.55 0.43 97 1003.9
20260905050504 13 83 3.2 9.7 0.03 1.55 0.43 97 1004.0
20260905050005 13 76 3.2 9.7 0.03 1.55 0.43 97 1003.8
20260905045504 13 81 4.8 14.5 0.03 1.55 0.43 97 1004.0
20260905045004 13 84 4.8 14.5 0.03 1.55 0.43 97 1004.0
20260905044505 13 91 4.8 12.9 0.03 1.55 0.43 97 1003.8
20260905044005 13 92 3.2 11.3 0.03 1.55 0.43 97 1003.8
20260905043505 13 83 3.2 9.7 0.00 1.55 0.41 97 1003.8
20260905043005 13 80 3.2 6.4 0.00 1.55 0.41 96 1003.8
20260905042526 13 78 3.2 9.7 0.00 1.55 0.41 96 1003.7
20260905042005 13 62 3.2 9.7 0.00 1.55 0.41 96 1003.7
20260905041504 13 52 3.2 11.3 0.00 1.55 0.41 95 1003.7
20260905041005 13 53 3.2 16.1 0.00 1.55 0.41 94 1003.6
20260905040504 13 58 4.8 16.1 0.00 1.55 0.41 95 1003.5
20260905040006 13 54 3.2 14.5 0.03 1.55 0.41 94 1003.6
20260905035505 13 60 3.2 12.9 0.08 1.55 0.41 94 1003.5
20260905035005 13 55 3.2 12.9 0.08 1.55 0.41 94 1003.4
20260905034525 13 58 3.2 12.9 0.08 1.55 0.41 94 1003.4
20260905034005 13 49 3.2 12.9 0.08 1.55 0.41 94 1003.3
20260905033525 13 16 3.2 9.7 0.08 1.55 0.41 95 1003.5
20260905033026 13 24 3.2 12.9 0.08 1.55 0.41 95 1003.4
20260905032504 13 53 4.8 12.9 0.08 1.55 0.41 96 1003.4
20260905032004 13 53 3.2 9.7 0.10 1.55 0.41 96 1003.3
20260905031505 13 35 3.2 9.7 0.10 1.55 0.41 96 1003.2
20260905031005 13 23 3.2 9.7 0.10 1.55 0.41 96 1003.3
20260905030505 13 14 4.8 14.5 0.10 1.52 0.38 96 1003.4
20260905030005 13 10 4.8 14.5 0.08 1.50 0.38 95 1003.3
20260905025525 13 28 3.2 14.5 0.03 1.47 0.33 95 1003.2
20260905025005 13 67 3.2 9.7 0.03 1.45 0.33 95 1003.1
20260905024504 13 69 3.2 9.7 0.03 1.45 0.33 95 1003.1
20260905024005 13 64 3.2 14.5 0.03 1.45 0.33 95 1003.0
20260905023505 13 34 3.2 14.5 0.03 1.45 0.33 95 1003.1
20260905023006 13 340 3.2 11.3 0.03 1.45 0.33 94 1003.1
20260905022505 13 3 3.2 11.3 0.03 1.45 0.33 93 1003.1
20260905022004 13 24 3.2 9.7 0.00 1.45 0.30 92 1003.2
20260905021504 13 24 3.2 9.7 0.00 1.45 0.30 92 1003.1
20260905021005 13 76 3.2 9.7 0.00 1.45 0.30 91 1002.9
20260905020505 13 63 3.2 11.3 0.00 1.45 0.30 92 1002.9
20260905020006 13 340 4.8 12.9 0.00 1.45 0.30 92 1002.9
20260905015504 13 336 4.8 12.9 0.00 1.45 0.30 93 1002.7
20260905015004 13 345 3.2 11.3 0.00 1.45 0.30 93 1002.8
20260905014526 13 32 3.2 11.3 0.00 1.45 0.30 93 1002.8
20260905014005 13 1 3.2 12.9 0.00 1.45 0.30 94 1002.6
20260905013504 13 338 3.2 12.9 0.00 1.45 0.30 93 1002.6
20260905013005 13 356 3.2 14.5 0.00 1.45 0.30 93 1002.5
20260905012504 13 331 4.8 16.1 0.00 1.45 0.30 93 1002.6
20260905012004 13 334 4.8 17.7 0.00 1.45 0.30 93 1002.6
20260905011505 13 355 4.8 17.7 0.08 1.45 0.30 94 1002.6
20260905011005 13 6 4.8 17.7 0.08 1.45 0.30 94 1002.4
20260905010504 13 13 4.8 17.7 0.08 1.45 0.30 95 1002.4
20260905010006 13 10 4.8 17.7 0.08 1.45 0.30 95 1002.4
20260905005505 13 353 4.8 16.1 0.10 1.45 0.30 95 1002.3
20260905005005 13 338 4.8 17.7 0.10 1.45 0.30 95 1002.3
20260905004505 13 313 4.8 17.7 0.10 1.45 0.30 96 1002.3
20260905004004 13 344 4.8 16.1 0.13 1.45 0.30 96 1002.2
20260905003525 14 298 4.8 14.5 0.15 1.45 0.30 97 1002.0
20260905003005 14 304 6.4 20.9 0.15 1.45 0.30 97 1002.0
20260905002504 14 5 4.8 20.9 0.15 1.45 0.30 97 1001.7
20260905002004 14 338 4.8 16.1 0.15 1.45 0.30 97 1001.8
20260905001505 14 326 4.8 16.1 0.10 1.37 0.23 97 1001.5
20260905001005 14 351 6.4 27.4 0.10 1.37 0.23 97 1001.7
20260905000505 14 349 6.4 27.4 0.08 1.37 0.23 97 1001.6
20260905000005 14 349 4.8 17.7 0.08 1.37 0.23 97 1001.4
20260904235505 14 326 4.8 16.1 0.08 1.40 0.20 97 1001.3
20260904235005 14 338 6.4 17.7 0.05 1.40 0.20 97 1001.3
20260904234504 15 330 6.4 29.0 0.05 1.40 0.18 97 1001.1
20260904234026 15 322 6.4 29.0 0.05 1.37 0.18 96 1001.1
20260904233504 15 312 6.4 20.9 0.03 1.37 0.15 97 1001.2
20260904233004 15 321 6.4 17.7 0.03 1.37 0.15 96 1001.0
20260904232525 15 339 6.4 16.1 0.03 1.37 0.15 96 1000.6
20260904232025 15 325 6.4 17.7 0.05 1.35 0.15 97 1000.8
20260904231504 15 319 6.4 25.7 0.13 1.35 0.15 97 1000.6
20260904231004 15 340 8.0 25.7 0.13 1.35 0.15 97 1000.6
20260904230525 15 328 6.4 22.5 0.13 1.35 0.15 98 1000.5
20260904230026 15 324 6.4 20.9 0.15 1.35 0.15 98 1000.4
20260904225525 15 349 6.4 17.7 0.15 1.35 0.15 98 1000.5
20260904225005 15 354 6.4 17.7 0.20 1.35 0.15 98 1000.3
20260904224526 15 358 4.8 17.7 0.23 1.35 0.15 99 1000.2
20260904224004 15 9 4.8 17.7 0.23 1.32 0.13 99 1000.1